Location: Gazon
(48.1318°N, 1.2708°W)
Time: 02:38:41
(UTC+00:00)

Spot 2 Rocket - Pass Details

Date: 18 September 2020
Orbit: 758 x 771 km, 98.6° (Epoch: 29 October)

Event Time Altitude Azimuth Distance (km) Brightness Sun altitude
Exits shadow 21:28:18 55° 310° (NW) 912 4.1 -30.6°
Drops below altitude 10° 21:32:25 10° 341° (NNW) 2,299 6.7 -31.1°
Sets 21:34:45 0° 344° (NNW) 3,229 7.6 -31.4°
